Regional Weather Roundup
Issued by NWS

Home | Current Version | Previous Version | Text Only | Print | Product List | Glossary On
Versions: 1 2 3 4 5 6 7 8 9 10 11 12 13 14 15 16 17 18 19 20 21 22 23 24 25 26 27 28 29 30 31 32 33 34 35 36 37 38 39 40 41 42 43 44 45 46 47 48 49 50
000
ASUS45 KTFX 282210
RWRMT
MONTANA REGIONAL WEATHER ROUNDUP
NATIONAL WEATHER SERVICE GREAT FALLS MT
400 PM MDT THU MAY 28 2015

NOTE: "FAIR" INDICATES FEW OR NO CLOUDS BELOW 12000 FEET WITH NO
SIGNIFICANT WEATHER AND/OR OBSTRUCTIONS TO VISIBILITY.

MTZ001>007-043-282300-
WEST OF THE DIVIDE

CITY           SKY/WX    TMP DP  RH WIND       PRES   REMARKS
KALISPELL      PTCLDY    70  43  37 NE17G26   30.10F
MISSOULA       PTSUNNY   69  47  45 SE15G23   30.13S
BUTTE          CLOUDY    56  42  59 N7        30.20S
MULLAN PASS    CLOUDY    51  44  77 W5        30.21R
DEER LODGE       N/A     57  46  67 CALM      30.23S
EUREKA           N/A     72  43  35 NE10G18   30.10R
HAMILTON         N/A     64  41  42 E15       30.15R
LIBBY            N/A     75  45  33 S6        30.07F
PLAINS           N/A     65  55  69 N6        30.10R
RONAN            N/A     70  48  45 CALM      30.15F
$$

MTZ008-052>055-282300-
SOUTHWEST MONTANA

CITY           SKY/WX    TMP DP  RH WIND       PRES   REMARKS
BOZEMAN        RAIN      52  48  86 SW3       30.16R FOG
DILLON         CLOUDY    59  43  55 N8        30.17R
W YELLOWSTONE  CLOUDY    48  41  76 CALM      30.18S
THREE FORKS      N/A     61  53  74 N10       30.13R
TWIN BRIDGES     N/A     57  46  66 N12       30.14R
$$

MTZ009-010-012-014-046-048-049-054-282300-
EAST SLOPES AND CENTRAL MONTANA

CITY           SKY/WX    TMP DP  RH WIND       PRES   REMARKS
CUT BANK       CLOUDY    47  43  86 N25       30.26R
GREAT FALLS    CLOUDY    55  51  86 N18       30.18R
MALMSTROM AFB  LGT RAIN  55  52  92 N13       30.19R
HELENA         CLOUDY    58  47  66 N12       30.19R
CONRAD           N/A     50  50 100 NW16      30.23R
$$

MTZ011-013-016-021-045-047-050-051-282300-
NORTH CENTRAL MONTANA

CITY           SKY/WX    TMP DP  RH WIND       PRES   REMARKS
HAVRE          CLOUDY    59  48  67 N22G33    30.12R
LEWISTOWN      CLOUDY    54  49  83 NW12G23   30.12R
N BAR RANCH    DRIZZLE   55  50  82 NW9       30.12R
CHINOOK          N/A     61  48  63 N17G26    30.09R
FORT BENTON      N/A     55  52  88 W13       30.17R
$$

MTZ017>020-022>027-061-062-282300-
NORTHEAST MONTANA

CITY           SKY/WX    TMP DP  RH WIND       PRES   REMARKS
GLASGOW        TSTM      60  52  74 N16       30.00R
JORDAN           N/A     75  49  39 N13       29.96R
SIDNEY         PTSUNNY   75  52  43 N13       29.89S
WOLF POINT     CLOUDY    76  50  40 N9        29.92R
MALTA            N/A     65  53  65 NW6       29.98S
PLENTYWOOD       N/A     61  54  77 N24G31    29.95R
POPLAR           N/A     75  48  38 N14       29.91S
SCOBEY           N/A     60  51  72 N21       29.97R
$$

MTZ028>42-056>058-282300-
SOUTHCENTRAL AND SOUTHEAST MONTANA

CITY           SKY/WX    TMP DP  RH WIND       PRES   REMARKS
BAKER          MOSUNNY   76  49  38 NW13G23   29.90F
BILLINGS       LGT RAIN  59  52  77 SW15      30.06S
LIVINGSTON     CLOUDY    57  45  64 SW7       30.13F
MILES CITY     PTSUNNY   75  50  41 N16G24    29.92S
BIG TIMBER       N/A     57  46  67 SW13G20   30.13R
EKALAKA          N/A     66  52  60 E2        29.93F
LAUREL           N/A     56  50  80 S5        30.07R
ROUNDUP          N/A     64  45  50 NW15      29.96R
$$

REGIONAL REPORTS...DAKOTAS

CITY           SKY/WX    TMP DP  RH WIND       PRES   REMARKS
WILLISTON      PTSUNNY   73  53  49 N18       29.89R
MINOT          PTSUNNY   68  56  65 NW13      29.86R
DICKINSON      MOSUNNY   73  56  54 N20       29.86S
BEACH          FAIR      73  50  43 N25G31    29.90S
CROSBY         FAIR      73  54  49 N12       29.91S
WATFORD CITY   MOCLDY    70  55  60 N14       29.87R
BISMARCK       PTSUNNY   78  55  44 W7        29.83F
GRAND FORKS    TSTM      68  62  81 SW22G32   29.78R
FARGO          HVY RAIN  66  61  84 W32G40    29.80R
BUFFALO SD       N/A     68  54  60 NW15      29.85F
RAPID CITY     PTSUNNY   68  54  60 N13       29.91S
$$

REGIONAL REPORTS...WYOMING/IDAHO/WASHINGTON

CITY           SKY/WX    TMP DP  RH WIND       PRES   REMARKS
GILLETTE       PTSUNNY   61  48  62 NW10      30.02R
SHERIDAN       CLOUDY    63  44  50 NW14      30.04R
BUFFALO WY     CLOUDY    59  46  62 NW7       30.07S
CODY           CLOUDY    59  45  58 N13       30.08S
YELLOWSTONE LA   N/A     42  37  82 CALM      30.23R
IDAHO FALLS    PTSUNNY   62  45  53 NE7       30.14R
SALMON         PTSUNNY   64  45  48 N15       30.10R
BOISE          SUNNY     78  42  27 W7        30.05F
SPOKANE        PTSUNNY   77  48  35 VRB7      30.06F
$$

REGIONAL REPORTS...ALBERTA

CITY           SKY/WX    TMP DP  RH WIND       PRES   REMARKS
EDMONTON       SUNNY     57  27  30 NE12      30.30F
CALGARY        CLOUDY    50  43  76 NE9       30.30S
LETHBRIDGE     CLOUDY    48  45  87 N10G17    30.29R SMOKE
MEDICINE HAT   CLOUDY    50  43  76 N16       30.25R
$$

REGIONAL REPORTS...SASKATCHEWAN

CITY           SKY/WX    TMP DP  RH WIND       PRES   REMARKS
SWIFT CURRENT  CLOUDY    48  43  81 N21G26    30.15R
REGINA         CLOUDY    54  43  66 N28G37    30.06R
SASKATOON      MOSUNNY   57  28  33 N23G29    30.17S
$$



USA.gov is the U.S. government's official web portal to all federal, state and local government web resources and services.